Regional Weather Roundup
Issued by NWS Little Rock, AR

Home | Current Version | Previous Version | Text Only | Print | Product List | Glossary On
Versions: 1 2 3 4 5 6 7 8 9 10 11 12 13 14 15 16 17 18 19 20 21 22 23 24 25 26 27 28 29 30 31 32 33 34 35 36 37 38 39 40 41 42 43 44 45 46 47 48 49
000
ASUS44 KLZK 280705
RWRLZK

WEATHER ROUNDUP FOR ARKANSAS
NATIONAL WEATHER SERVICE LITTLE ROCK AR
100 AM CST SAT FEB 28 2015

NOTE: "FAIR" INDICATES FEW OR NO CLOUDS BELOW 12,000 FEET WITH NO
SIGNIFICANT WEATHER AND/OR OBSTRUCTIONS TO VISIBILITY.

ARZ001-003-010-029-280800-
NORTHWEST ARKANSAS

CITY           SKY/WX    TMP DP  RH WIND       PRES   REMARKS
FAYETTEVILLE   LGT SNOW  18  16  92 NE6       30.48S FOG     WCI  10
FORT SMITH     LGT SNOW  23  19  85 E8        30.52F FOG     WCI  14
HARRISON       LGT SNOW  17  15  92 E5        30.48F FOG     WCI  10
BENTONVILLE    CLOUDY    19  12  73 E8        30.48S WCI   9
ROGERS         FLURRIES  18  14  84 E6        30.48S WCI  10
SILOAM SPGS    CLOUDY    19  10  68 E5        30.48F WCI  13
HIGHFILL       CLOUDY    19  14  81 E7        30.47S WCI  10
$$

ARZ004-005-016-280800-
NORTH CENTRAL ARKANSAS

CITY           SKY/WX    TMP DP  RH WIND       PRES   REMARKS
BATESVILLE     CLOUDY    21  12  68 CALM      30.56S
FLIPPIN        MOCLDY    19  12  73 E3        30.53F
MTN HOME       LGT SNOW  19  14  81 E5        30.52F WCI  12
$$

ARZ040-041-280800-
WEST CENTRAL ARKANSAS

CITY           SKY/WX    TMP DP  RH WIND       PRES   REMARKS
MENA           CLOUDY    27  21  80 E6        30.46S WCI  20
MOUNT IDA      CLOUDY    26  10  50 VRB5      30.47S WCI  20
$$

ARZ009-017-025-026-028-280800-
NORTHEAST ARKANSAS

CITY           SKY/WX    TMP DP  RH WIND       PRES   REMARKS
CORNING        CLOUDY    23  14  68 NE12      30.59S WCI  12
JONESBORO      CLOUDY    24  16  71 NE8       30.57S WCI  15
NEWPORT        CLOUDY    25  17  71 NE10      30.59S WCI  15
WALNUT RIDGE   MOCLDY    25  12  58 NE13      30.58F WCI  13
BLYTHEVILLE    CLOUDY    26  15  63 E10       30.57S WCI  16
$$

ARZ022-023-033-042-044-280800-
CENTRAL ARKANSAS

CITY           SKY/WX    TMP DP  RH WIND       PRES   REMARKS
LITTLE ROCK    FLURRIES  26  16  65 NE7       30.55F WCI  18
N LITTLE ROCK    N/A     23  20  88 NE9       30.55F WCI  13
JACKSONVILLE   MOCLDY    25  16  70 NE7       30.53F WCI  17
SEARCY         CLOUDY    24  16  71 NE10      30.57F WCI  14
HOT SPRINGS    CLOUDY    26  12  55 E8        30.51F WCI  18
RUSSELLVILLE   CLOUDY    25  15  66 E6        30.54S WCI  18
CLINTON        MOCLDY    23  16  74 CALM      30.57F
$$

ARZ036-280800-
EAST ARKANSAS

CITY           SKY/WX    TMP DP  RH WIND       PRES   REMARKS
WEST MEMPHIS   CLOUDY    27  16  63 NE8       30.54S WCI  19
$$

ARZ050-053-066-070-073-280800-
SOUTHWEST ARKANSAS

CITY           SKY/WX    TMP DP  RH WIND       PRES   REMARKS
ARKADELPHIA    FLURRIES  27  19  71 NE8       30.53F WCI  19
CAMDEN         MOCLDY    28  18  64 MISG      30.52S
TEXARKANA      CLOUDY    26  22  84 E7        30.47F WCI  18
EL DORADO      CLOUDY    29  19  66 NE8       30.50F WCI  21
DE QUEEN       CLOUDY    27  17  66 E7        30.48S WCI  19
$$

ARZ056-057-069-280800-
SOUTHEAST ARKANSAS

CITY           SKY/WX    TMP DP  RH WIND       PRES   REMARKS
PINE BLUFF     CLOUDY    26  19  74 NE9       30.53F WCI  17
STUTTGART      CLOUDY    27  18  69 NE12      30.54S WCI  16
MONTICELLO     CLOUDY    29  20  69 NE6       30.50F WCI  23

$$





USA.gov is the U.S. government's official web portal to all federal, state and local government web resources and services.